Location: site
(53.0000°N, 23.0500°E)
Time: 22:22:33
(UTC+01:00)

SAOCOM 1-A - Pass Details

Date: 23 January 2020
Orbit: 621 x 623 km, 97.9° (Epoch: 24 February)

Event Time Altitude Azimuth Distance (km) Brightness Sun altitude
Rises 05:42:44 0° 199° (SSW) 2,894 ? -15.0°
Reaches altitude 10° 05:45:17 10° 213° (SSW) 1,993 ? -14.7°
Maximum altitude 05:48:48 24° 268° (W) 1,305 ? -14.1°
Enters shadow 05:49:37 23° 285° (WNW) 1,352 ? -14.0°
